La Paz, Mexico

3:47 PM MDT on August 17, 2017 (GMT -0600)
Gen Manuel Marquez De Leon

Weather History for MMLP - September, 2013

Change the Weather History Date:

Sunday, September 22, 2013

  Actual Average Record
Temperature  
Mean Temperature 81 °F -  
Max Temperature 95 °F 91 °F 102 °F (2001)
Min Temperature 67 °F 69 °F 67 °F (2013)
Cooling Degree Days 16    
Growing Degree Days 31 (Base 50)    
Moisture  
Dew Point 63 °F    
Average Humidity 58    
Maximum Humidity 83    
Minimum Humidity 34    
Precipitation  
Precipitation 0.00 in - - ()
Sea Level Pressure  
Sea Level Pressure 29.77 in    
Wind  
Wind Speed 8 mph ()    
Max Wind Speed 13 mph    
Max Gust Speed -    
Visibility 10.2 miles    
Events      
Averages and records for this station are not official NWS values.
T = Trace of Precipitation, MM = Missing Value Source: Averaged Metar Reports

Daily Weather History Graph

Daily Weather History Graph

Search for Another Location

Airport or City:

Trip Planner

Search our weather history database for the weather conditions in past years. The results will help you decide how hot, cold, wet, or windy it might be!

Date:

Astronomy

Sep. 22, 2013 Rise Set
Actual Time 7:10 AM MDT 7:17 PM MDT
Civil Twilight 6:47 AM MDT 7:40 PM MDT
Nautical Twilight 6:21 AM MDT 8:06 PM MDT
Astronomical Twilight 5:54 AM MDT 8:32 PM MDT
Moon 9:36 PM MDT (9/22) 10:08 AM MDT (9/22)
Length of Visible Light 12h 52m
Length of Day
12h 07m
Waning Gibbous, 88% of the Moon is Illuminated
Sep 22
Waning Gibbous
Sep 26
Last Quarter
Oct 4
New
Oct 11
First Quarter
Oct 18
Full

Hourly Weather History & Observations

Time (MDT) Temp. Heat Index Dew Point Humidity Pressure Visibility Wind Dir Wind Speed Gust Speed Precip Events Conditions
5:50 AM 68 °F - 63 °F 78% 29.76 in 2 mi South 8.9 mph - -  
6:06 AM 66.2 °F - 60.8 °F 83% 29.83 in 10.0 mi South 10.4 mph - N/A   Clear
6:42 AM 66.2 °F - 60.8 °F 83% 29.78 in 10.0 mi South 10.4 mph - N/A   Clear
7:41 AM 66.2 °F - 60.8 °F 83% 29.80 in 10.0 mi SW 5.8 mph - N/A   Scattered Clouds
8:50 AM 71 °F - 63 °F 68% 29.80 in 12 mi South 6.7 mph - -   Mostly Cloudy
8:59 AM 68.0 °F - 60.8 °F 78% 29.86 in 10.0 mi SSE 6.9 mph - N/A   Mostly Cloudy
9:50 AM 71.6 °F - 60.8 °F 69% 29.81 in 10.0 mi SSE 10.4 mph - N/A   Mostly Cloudy
10:52 AM 77.0 °F - 60.8 °F 57% 29.80 in 10.0 mi South 10.4 mph - N/A   Partly Cloudy
11:41 AM 78.8 °F - 60.8 °F 54% 29.84 in 10.0 mi South 12.7 mph - N/A   Clear
11:50 AM 82 °F - 68 °F 55% 29.77 in 19 mi South 6.7 mph - -  
12:42 PM 84.2 °F 83.8 °F 59.0 °F 42% 29.76 in 10.0 mi South 11.5 mph - N/A   Clear
1:41 PM 87.8 °F 87.6 °F 60.8 °F 40% 29.73 in 10.0 mi WSW 4.6 mph - N/A   Clear
2:46 PM 89.6 °F 89.5 °F 60.8 °F 38% 29.83 in 10.0 mi SSW 11.5 mph - N/A   Clear
2:50 PM 96 °F - 74 °F 39% 29.69 in 19 mi South 6.7 mph - -  
3:47 PM 89.6 °F 88.9 °F 59.0 °F 36% 29.69 in 10.0 mi SSW 11.5 mph - N/A   Clear
4:45 PM 89.6 °F 89.5 °F 60.8 °F 38% 29.69 in 10.0 mi WSW 11.5 mph - N/A   Clear
5:50 PM 91 °F - 66 °F 34% 29.68 in 19 mi South 8.9 mph - -  
5:57 PM 86.0 °F 86.1 °F 60.8 °F 43% 29.82 in 10.0 mi SW 11.5 mph - N/A   Clear
6:44 PM 82.4 °F 83.4 °F 62.6 °F 51% 29.70 in 10.0 mi South 11.5 mph - N/A   Clear
7:45 PM 78.8 °F - 62.6 °F 57% 29.72 in 10.0 mi WSW 6.9 mph - N/A   Clear
8:50 PM 79 °F - 67 °F 57% 29.73 in 2 mi South 6.7 mph - -  
9:50 PM 75.2 °F - 64.4 °F 69% 29.76 in 10.0 mi South 9.2 mph - N/A   Clear
10:45 PM 73.4 °F - 64.4 °F 73% 29.78 in 10.0 mi South 11.5 mph - N/A   Clear
11:45 PM 74 °F - 67 °F 73% 29.75 in 2 mi SSE 8.9 mph - -